[[{"header":{"parameterUnit":"m.s-1","parameterCategory":1,"la1":30.2991,"la2":30.254,"lo1":-89.0895,"lo2":-89.0444,"dy":0.0017,"dx":0.0017,"nx":28,"ny":28,"refTime":"2023-08-26T03:00:00:Z","depth":0,"parameterNumber":2,"parameterNumberName":"U-component_of_WINDS"},"data":[0,0,0,0,0,0,0,0,0,0,0,0,0,0,0,0,0,0,0,0,0,0,0,0,0,0,0,0,0,0,0,0,0,0,0,0,0,0,0,0,0,0,0,0,0,0,0,0,0,0,0,0,0,0,0,0,0,0,3.354,3.3542,0,3.3673,3.3675,3.3676,3.3645,3.3642,3.364,3.3637,3.3774,3.378,3.3786,0,0,0,0,0,0,0,0,0,0,0,0,0,3.326,3.3265,3.354,3.3542,3.3543,3.3673,3.3675,3.3677,3.3645,3.3642,3.3639,3.3636,3.3772,3.3779,3.3787,0,0,0,0,0,0,0,0,0,0,0,0,0,3.3386,3.3267,3.354,3.3544,3.3545,3.3673,3.3675,3.3677,3.3646,3.3642,3.3638,3.3635,3.377,3.3779,3.3788,3.392,0,0,3.3815,3.3819,0,0,0,0,0,0,0,0,3.3379,3.3397,3.3541,3.3544,3.3546,3.3639,3.3626,3.3758,3.3647,3.3608,3.3637,3.3633,3.3732,3.3744,3.3777,3.3926,3.3932,3.3816,3.3822,3.3825,3.3828,0,0,0,0,0,0,0,3.3371,3.3391,3.3593,3.3543,3.3546,3.3539,3.3552,3.3651,3.369,3.3611,3.3609,3.3625,3.3733,3.3769,3.378,3.3934,3.3816,3.3824,3.3829,3.3833,3.4198,3.4202,0,0,0,0,0,0,3.336,3.3384,3.3589,3.3597,3.3451,3.3547,3.3562,3.3613,3.3689,3.3697,3.3628,3.3623,3.3755,3.377,3.3785,3.3945,3.3825,3.3834,3.3839,3.4194,3.4199,3.4204,0,0,0,0,0,0,3.3354,3.3378,3.3583,3.349,3.3515,3.3556,3.3613,3.3617,3.3653,3.3702,3.3709,3.3658,3.3753,3.3772,3.3887,3.3949,3.3838,3.3846,3.4189,3.4196,3.4202,3.4265,0,0,0,0,0,0,3.3346,3.3377,3.3427,3.3491,3.352,3.3682,3.3616,3.3623,3.3669,3.3663,3.3731,3.3739,3.3751,3.3873,3.3896,3.396,3.3853,3.4183,3.4192,3.4199,3.4258,3.4273,3.4286,0,0,0,0,0,3.3336,3.344,3.343,3.3454,3.3584,3.3686,3.3703,3.3714,3.3674,3.3725,3.3756,3.3737,3.3939,3.3885,3.391,3.3978,3.418,3.419,3.4199,3.4251,3.427,3.4286,0,0,0,0,0,0,3.3382,3.3448,3.3438,3.3565,3.362,3.368,3.3745,3.3734,3.3802,3.3794,3.3806,3.3822,3.3938,3.3969,3.3908,3.411,3.4053,3.4069,3.4085,3.4103,3.4117,3.4107,3.3861,0,0,0,0,0,3.3407,3.3483,3.3537,3.3644,3.3673,3.3704,3.3749,3.3753,3.3811,3.3834,3.3874,3.3931,3.4007,3.4057,3.413,3.4262,3.4277,3.4321,3.4335,3.4347,3.436,3.4432,3.4453,3.4236,3.4235,3.4235,0,0,3.3459,3.3504,3.3552,3.3655,3.3698,3.3777,3.3724,3.381,3.3869,3.3847,3.3957,3.3989,3.4053,3.4177,3.4234,3.4207,3.4423,3.4359,3.4368,3.4375,3.4444,3.4465,3.4483,3.4242,3.4241,3.424,0,0,3.3594,3.3637,3.373,3.3775,3.3841,3.3861,3.3884,3.3946,3.3966,3.4077,3.4062,3.4133,3.4264,3.431,3.4351,3.4505,3.449,3.4529,3.4603,3.4673,3.469,3.4706,3.476,3.478,3.4541,3.4541,3.4541,0,3.365,3.3769,3.378,3.3868,3.3914,3.3897,3.3993,3.4035,3.4122,3.4154,3.4123,3.4287,3.4329,3.4464,3.4501,3.4535,3.4561,3.452,3.4687,3.4702,3.4717,3.4769,3.479,3.4546,3.4545,3.4545,3.4544,0,3.3835,3.3918,3.3986,3.407,3.4123,3.4214,3.4239,3.4292,3.4292,3.4316,3.4429,3.448,3.4562,3.4595,3.4596,3.473,3.4711,3.4684,3.4627,3.4742,3.4791,3.4811,3.4552,3.455,3.4549,3.4548,0,0,3.4002,3.4091,3.4116,3.4154,3.4226,3.429,3.4381,3.4462,3.4507,3.4567,3.4644,3.4756,3.473,3.4777,3.4783,3.4845,3.4964,3.481,3.4812,3.4837,3.5115,3.5135,3.5158,3.4955,3.4958,3.4962,3.5109,0,3.4144,3.4303,3.4316,3.4459,3.4536,3.4522,3.4601,3.4654,3.4679,3.4748,3.4776,3.4855,3.4816,3.4844,3.4905,3.4936,3.502,3.4926,3.5026,3.5029,3.5009,3.5184,3.5205,3.5342,3.5129,3.5132,3.5134,0,3.433,3.4396,3.4547,3.4608,3.4641,3.4712,3.4787,3.4853,3.4913,3.4927,3.4979,3.4977,3.5071,3.5012,3.5141,3.5077,3.5119,3.5141,3.5146,3.5155,3.5088,3.5197,3.5386,3.5406,3.5165,3.5162,3.516,0,3.4436,3.4563,3.467,3.4703,3.4777,3.4827,3.486,3.4917,3.4965,3.5031,3.5062,3.5138,3.518,3.5239,3.5258,3.5213,3.5387,3.5329,3.5401,3.5401,3.5437,3.5435,3.5635,3.5466,3.5465,3.5465,3.5464,0,3.4593,3.4686,3.4718,3.4784,3.4888,3.4902,3.5004,3.5035,3.5085,3.5157,3.515,3.5217,3.5238,3.531,3.5325,3.543,3.5449,3.5463,3.5466,3.5463,3.5462,3.549,3.5481,3.547,3.5469,3.5468,3.5467,0,3.4728,3.4754,3.487,3.4931,3.4948,3.5022,3.5074,3.5138,3.5162,3.5253,3.5275,3.5313,3.5397,3.5421,3.5522,3.5533,3.5655,3.565,3.5635,3.5635,3.5705,3.5698,3.593,3.5962,3.5772,3.5774,3.5775,0,3.4826,3.4897,3.4966,3.5013,3.5049,3.5125,3.5174,3.5191,3.5242,3.5316,3.537,3.5453,3.552,3.5654,3.5691,3.5768,3.5764,3.5841,3.5776,3.5771,3.5765,3.576,3.5767,3.5852,3.5854,3.5856,3.5857,0,3.4997,3.5006,3.5076,3.5152,3.521,3.527,3.5328,3.5367,3.5392,3.545,3.5536,3.5588,3.569,3.5773,3.5851,3.5886,3.5876,3.5878,3.5898,3.5896,3.5884,3.5891,3.5667,3.5872,3.5871,3.587,3.5869,3.5868,3.5117,3.5179,3.5237,3.5316,3.5361,3.5415,3.5478,3.551,3.5581,3.5666,3.5671,3.5764,3.5823,3.5927,3.5966,3.6039,3.6016,3.6046,3.6054,3.6061,3.6066,3.5873,3.6053,3.6053,3.6052,3.6052,3.6052,0,3.5287,3.5323,3.5396,3.5476,3.5539,3.5524,3.5587,3.564,3.5721,3.5777,3.5843,3.5941,3.6021,3.6064,3.6144,3.6194,3.6191,3.6214,3.621,3.6218,3.6082,3.6056,3.6214,3.6214,3.6214,3.6214,3.6214,3.6214,3.5382,3.5487,3.5503,3.5631,3.5667,3.5757,3.5794,3.5845,3.5889,3.5999,3.6065,3.6092,3.6143,3.6226,3.6299,3.631,3.6339,3.6365,3.6373,3.6245,3.6228,3.6212,3.6187,3.6371,3.6371,3.6503,3.6504,3.6505]},{"header":{"parameterUnit":"m.s-1","parameterCategory":1,"la1":30.2991,"la2":30.254,"lo1":-89.0895,"lo2":-89.0444,"dy":0.0017,"dx":0.0017,"nx":28,"ny":28,"refTime":"2023-08-26T03:00:00:Z","depth":0,"parameterNumber":3,"parameterNumberName":"V-component_of_WINDS"},"data":[0,0,0,0,0,0,0,0,0,0,0,0,0,0,0,0,0,0,0,0,0,0,0,0,0,0,0,0,0,0,0,0,0,0,0,0,0,0,0,0,0,0,0,0,0,0,0,0,0,0,0,0,0,0,0,0,0,0,-1.208,-1.2081,0,-1.2153,-1.2154,-1.2155,-1.2177,-1.2177,-1.2176,-1.2176,-1.225,-1.2253,-1.2255,0,0,0,0,0,0,0,0,0,0,0,0,0,-1.1959,-1.1961,-1.208,-1.2081,-1.2082,-1.2153,-1.2154,-1.2155,-1.2177,-1.2177,-1.2176,-1.2176,-1.225,-1.2252,-1.2255,0,0,0,0,0,0,0,0,0,0,0,0,0,-1.202,-1.1962,-1.208,-1.2101,-1.2104,-1.2153,-1.2154,-1.2156,-1.2177,-1.2177,-1.2176,-1.2176,-1.2249,-1.2252,-1.2256,-1.2288,0,0,-1.2266,-1.2268,0,0,0,0,0,0,0,0,-1.2016,-1.2024,-1.2097,-1.21,-1.2103,-1.2156,-1.2139,-1.22,-1.2177,-1.2149,-1.2176,-1.2175,-1.2219,-1.2225,-1.224,-1.2292,-1.2295,-1.2267,-1.2269,-1.227,-1.2271,0,0,0,0,0,0,0,-1.2012,-1.2021,-1.2109,-1.2098,-1.2102,-1.2107,-1.2115,-1.2151,-1.2187,-1.2152,-1.2154,-1.2162,-1.2221,-1.2237,-1.2242,-1.2296,-1.2267,-1.227,-1.2272,-1.2273,-1.2379,-1.2379,0,0,0,0,0,0,-1.2004,-1.2018,-1.2107,-1.2111,-1.2058,-1.211,-1.2119,-1.2139,-1.2186,-1.2193,-1.2162,-1.2163,-1.2231,-1.2238,-1.2245,-1.2286,-1.227,-1.2273,-1.2275,-1.2378,-1.2379,-1.238,0,0,0,0,0,0,-1.2002,-1.2012,-1.2104,-1.2065,-1.2077,-1.2113,-1.2135,-1.2141,-1.2157,-1.2194,-1.2201,-1.2172,-1.2231,-1.224,-1.2277,-1.2289,-1.2275,-1.2278,-1.2377,-1.2378,-1.2379,-1.2369,0,0,0,0,0,0,-1.1998,-1.2011,-1.2024,-1.2065,-1.2079,-1.2135,-1.2136,-1.2143,-1.2163,-1.2164,-1.2205,-1.2211,-1.2231,-1.2272,-1.2281,-1.2294,-1.2281,-1.2376,-1.2378,-1.2379,-1.2369,-1.237,-1.2371,0,0,0,0,0,-1.1994,-1.2018,-1.2024,-1.2035,-1.2096,-1.2136,-1.2144,-1.2166,-1.2164,-1.2177,-1.2201,-1.221,-1.2287,-1.2276,-1.2286,-1.23,-1.2376,-1.2377,-1.2379,-1.2368,-1.237,-1.2371,0,0,0,0,0,0,-1.1976,-1.2023,-1.2031,-1.2069,-1.2098,-1.2139,-1.2157,-1.2167,-1.2197,-1.2197,-1.2223,-1.2233,-1.2268,-1.2288,-1.2275,-1.2334,-1.2331,-1.2335,-1.232,-1.2321,-1.2323,-1.2317,-1.2284,0,0,0,0,0,-1.1977,-1.2006,-1.2045,-1.2075,-1.2089,-1.2121,-1.2139,-1.2154,-1.2185,-1.2197,-1.2224,-1.2254,-1.2285,-1.2304,-1.2335,-1.2372,-1.2381,-1.2387,-1.2388,-1.2388,-1.2391,-1.2412,-1.2415,-1.2385,-1.2385,-1.2385,0,0,-1.1978,-1.2008,-1.2024,-1.2072,-1.2097,-1.2126,-1.2131,-1.2161,-1.2183,-1.2202,-1.2239,-1.226,-1.2295,-1.2332,-1.235,-1.235,-1.2402,-1.239,-1.2391,-1.2393,-1.2414,-1.2417,-1.242,-1.2386,-1.2386,-1.2386,0,0,-1.1996,-1.2021,-1.2049,-1.2073,-1.211,-1.2131,-1.2137,-1.2177,-1.2192,-1.223,-1.2245,-1.2271,-1.2324,-1.2348,-1.2367,-1.2395,-1.2404,-1.2404,-1.241,-1.243,-1.2433,-1.2435,-1.2445,-1.2448,-1.2407,-1.2407,-1.2407,0,-1.1993,-1.2037,-1.2062,-1.2092,-1.2113,-1.2131,-1.216,-1.2182,-1.2227,-1.2241,-1.224,-1.2307,-1.2332,-1.2375,-1.2382,-1.2397,-1.2406,-1.2399,-1.243,-1.2433,-1.2435,-1.2445,-1.2449,-1.2407,-1.2407,-1.2407,-1.2407,0,-1.2032,-1.2063,-1.2081,-1.2124,-1.2147,-1.2176,-1.2205,-1.2225,-1.2238,-1.2259,-1.2297,-1.2328,-1.2365,-1.2377,-1.239,-1.2423,-1.2421,-1.2425,-1.2423,-1.2437,-1.2447,-1.2451,-1.2406,-1.2406,-1.2406,-1.2406,0,0,-1.204,-1.2097,-1.2103,-1.2123,-1.2165,-1.219,-1.222,-1.2256,-1.2273,-1.2304,-1.233,-1.2374,-1.2378,-1.24,-1.2416,-1.2434,-1.2454,-1.2436,-1.2437,-1.2438,-1.2492,-1.2489,-1.2493,-1.2461,-1.2462,-1.2463,-1.2489,0,-1.2063,-1.2117,-1.214,-1.2184,-1.2213,-1.2231,-1.2258,-1.2287,-1.2307,-1.2334,-1.2357,-1.2388,-1.2391,-1.2404,-1.2423,-1.2448,-1.2465,-1.2446,-1.2485,-1.2486,-1.2475,-1.2498,-1.2494,-1.2518,-1.2493,-1.2494,-1.2494,0,-1.2096,-1.2127,-1.2174,-1.2213,-1.2226,-1.225,-1.2285,-1.2311,-1.2345,-1.2358,-1.2383,-1.2399,-1.2431,-1.2427,-1.2472,-1.2458,-1.2476,-1.2491,-1.2492,-1.2496,-1.2491,-1.2502,-1.2526,-1.253,-1.2501,-1.25,-1.25,0,-1.2097,-1.215,-1.2186,-1.2202,-1.2249,-1.2265,-1.2285,-1.2318,-1.2339,-1.237,-1.2384,-1.2418,-1.2437,-1.2464,-1.2488,-1.2483,-1.2531,-1.2529,-1.2543,-1.2543,-1.2552,-1.2551,-1.2579,-1.2564,-1.2564,-1.2564,-1.2564,0,-1.212,-1.2147,-1.2187,-1.2208,-1.224,-1.2266,-1.2297,-1.2319,-1.2348,-1.2374,-1.2393,-1.2417,-1.2447,-1.2476,-1.2495,-1.2529,-1.2538,-1.255,-1.2554,-1.2548,-1.2546,-1.2559,-1.2558,-1.2565,-1.2564,-1.2564,-1.2564,0,-1.2126,-1.2153,-1.2192,-1.2234,-1.2245,-1.2267,-1.2302,-1.2324,-1.2345,-1.2378,-1.2387,-1.2421,-1.2456,-1.2483,-1.2527,-1.254,-1.2576,-1.2582,-1.2565,-1.2567,-1.258,-1.2578,-1.2617,-1.2623,-1.2604,-1.2604,-1.2604,0,-1.2138,-1.216,-1.2204,-1.2223,-1.2243,-1.2273,-1.2295,-1.2322,-1.2343,-1.2383,-1.24,-1.2436,-1.2466,-1.2519,-1.2548,-1.2582,-1.2588,-1.26,-1.2594,-1.2586,-1.2588,-1.2587,-1.2589,-1.26,-1.26,-1.26,-1.26,0,-1.2157,-1.217,-1.22,-1.2235,-1.226,-1.2289,-1.2319,-1.2333,-1.2365,-1.2389,-1.2424,-1.2447,-1.2493,-1.2528,-1.2565,-1.2586,-1.2599,-1.2602,-1.2607,-1.26,-1.259,-1.2596,-1.2567,-1.2601,-1.2601,-1.2601,-1.2601,-1.2601,-1.2167,-1.2188,-1.2222,-1.2255,-1.228,-1.2307,-1.233,-1.2354,-1.2384,-1.2423,-1.2438,-1.2474,-1.2508,-1.2559,-1.258,-1.2609,-1.261,-1.2618,-1.2619,-1.2621,-1.262,-1.2585,-1.2616,-1.2616,-1.2616,-1.2616,-1.2616,0,-1.2187,-1.221,-1.2241,-1.2281,-1.2307,-1.2317,-1.235,-1.2372,-1.2403,-1.2433,-1.2463,-1.2503,-1.2538,-1.2569,-1.2605,-1.2622,-1.2629,-1.2631,-1.263,-1.2634,-1.2617,-1.2609,-1.2625,-1.2625,-1.2625,-1.2625,-1.2625,-1.2625,-1.2201,-1.2236,-1.2253,-1.2301,-1.2324,-1.2359,-1.2378,-1.2403,-1.2427,-1.2472,-1.25,-1.2521,-1.2552,-1.259,-1.2622,-1.2631,-1.2643,-1.2643,-1.2653,-1.2637,-1.2635,-1.2634,-1.2627,-1.2646,-1.2646,-1.2668,-1.2668,-1.2669]}]]